Regional Weather Roundup
Issued by NWS

Home | Current Version | Previous Version | Text Only | Print | Product List | Glossary Off
Versions: 1 2 3 4 5 6 7 8 9 10 11 12 13 14 15 16 17 18 19 20 21 22 23 24 25 26 27 28 29 30 31 32 33 34 35 36 37 38 39 40 41 42 43 44 45 46 47 48 49 50

000
ASUS43 KDTX 260501
RWRMI
MICHIGAN HOURLY REGIONAL WEATHER ROUNDUP
NATIONAL WEATHER SERVICE DETROIT/PONTIAC MI
100 AM EDT FRI AUG 26 2016

NOTE: "FAIR" INDICATES FEW OR NO CLOUDS BELOW 12,000 FEET WITH NO
SIGNIFICANT WEATHER AND/OR OBSTRUCTION TO VISIBILITY.

MIZ047>049-052>055-059>063-066>070-074>076-081>083-260600-
SOUTHEAST LOWER MICHIGAN

CITY           SKY/WX    TMP DP  RH WIND       PRES   REMARKS
ADRIAN         FAIR      68  66  93 NW5       30.08R
ALMA           FAIR      61  60  97 CALM      30.05S
ANN ARBOR      FAIR      68  63  84 W7        30.05R
BAD AXE        FAIR      67  61  83 NW6       30.03R
CARO           FAIR      64  62  93 CALM      30.03R
DETROIT CITY   FAIR      73  65  75 NW7       30.03R
DETROIT        FAIR      70  64  81 W6        30.05R
FLINT          FAIR      66  60  81 W6        30.05R
GROSSE ILE     FAIR      73  64  75 NW7       30.03R
HILLSDALE      CLOUDY    66  64  91 W3        30.08R
HOWELL         FAIR      64  61  88 W6        30.06R

CITY           SKY/WX    TMP DP  RH WIND       PRES   REMARKS
JACKSON        FAIR      64  63  96 CALM      30.08R
LAMBERTVILLE   FAIR      73  68  85 CALM      30.06R
LANSING        FAIR      64  60  87 W6        30.07R
LAPEER         FAIR      66  63  89 NW6       30.04R
MASON          FAIR      65  60  83 W3        30.07R
MONROE         FAIR      69  67  94 W13       30.04R
MT. CLEMENS    FAIR      72  62  71 W8        30.01R
PONTIAC        FAIR      68  61  78 W9        30.04R
PORT HURON     FAIR      70  66  88 W3        30.02R
TRI CITIES     FAIR      64  60  87 W8        30.04R
MIDLAND        FAIR      63  60  91 CALM      30.03R
TROY           FAIR      73  61  67 W7        30.05S
SAGINAW HB     FAIR      64  59  82 W5        30.03R
$$
MIZ043>046-050>051-056>058-064>065-071>073-077>080-260600-
SOUTHWEST LOWER MICHIGAN

CITY           SKY/WX    TMP DP  RH WIND       PRES   REMARKS
BATTLE CREEK   MOCLDY    62  61  96 SW3       30.08S
BENTON HARBOR  FAIR      65  62  90 CALM      30.07S
BIG RAPIDS     FAIR      60  58  94 CALM      30.05S
COLDWATER      MOCLDY    63  63 100 CALM      30.08S
FREMONT        FAIR      61  61  98 CALM      30.05S
HOLLAND        FAIR      61  59  93 CALM      30.08R
GRAND RAPIDS   FAIR      65  61  87 W6        30.07R
IONIA          FAIR      62  59  90 W5        30.06R
KALAMAZOO      FAIR      66  61  84 CALM      30.08R
LUDINGTON      CLOUDY    72  65  78 W8        30.04R
MARSHALL       FAIR      64  63  94 CALM      30.07S
MOUNT PLEASANT FAIR      65  59  79 W5        30.03S
MUSKEGON       FAIR      67  64  90 SW3       30.06S
SOUTH HAVEN    FAIR      64  64  99 CALM      30.07S
$$
MIZ016>042-260600-
NORTHERN LOWER MICHIGAN

CITY           SKY/WX    TMP DP  RH WIND       PRES   REMARKS
ALPENA         FAIR      65  56  72 SW6       29.98S
BEAVER ISLAND  FAIR      67  60  77 N7        29.99R
BELLAIRE       FAIR      63  59  88 CALM      30.00R
CADILLAC       FAIR      60  57  90 SW6       30.05R
CHARLEVOIX     FAIR      69  64  83 SW6       30.00S
FRANKFORT      FAIR      72  63  71 W8        30.02R
GAYLORD        FAIR      63  55  75 W6        30.02R
GRAYLING       FAIR      63  57  81 W5        30.03R
HARBOR SPRINGS FAIR      69  64  82 W6        29.97R
HOUGHTON LAKE  FAIR      67  58  72 W8        30.04R
MANISTEE       FAIR      60  60 100 VRB3      30.02R
OSCODA         FAIR      64  57  79 W5        30.00R
PELLSTON       FAIR      68  61  78 W5        29.97R
ROGERS CITY    FAIR      66  56  71 SW10      29.97S
TRAVERSE CITY  FAIR      67  61  81 SW5       30.00R
$$
MIZ007>008-015-260600-
EASTERN UPPER MICHIGAN

CITY           SKY/WX    TMP DP  RH WIND       PRES   REMARKS
KINROSS        CLOUDY    63  61  93 CALM      29.96R
MACKINAC ISLAN CLOUDY    68  63  83 NW6       29.96R
NEWBERRY       CLOUDY    64  55  73 NW6       29.98R
S. S. MARIE    CLOUDY    64  58  80 CALM      29.95R
MUNISING         N/A     66  55  67 W7        29.99R
$$
MIZ004>006-011>014-085-260600-
CENTRAL UPPER MICHIGAN

CITY           SKY/WX    TMP DP  RH WIND       PRES   REMARKS
MANISTIQUE     FAIR      60  55  85 NW5       29.99R
ESCANABA       FAIR      60  58  92 CALM      30.00R
MENOMINEE      FAIR     N/A N/A N/A VRB3      30.04R
SAWYER-GWINN   FAIR      60  53  79 W6        30.01S
$$
MIZ001>003-009>011-084-260600-
WESTERN UPPER MICHIGAN

CITY           SKY/WX    TMP DP  RH WIND       PRES   REMARKS
IRON MOUNTAIN  FAIR      61  52  72 W5        30.03R
HOUGHTON       FAIR      64  56  75 W20       29.97R
COPPER HARBOR    N/A     66  58  75 NW10G23   29.94R
IRONWOOD       FAIR      57  54  89 W6        30.05R
$$

ABBREVIATIONS USED IN REMARKS
   TC - TEMPERATURE IN CELSIUS
  WCI - WIND CHILL INDEX
   HX - HEAT INDEX
  VSB - VISIBILITY





USA.gov is the U.S. government's official web portal to all federal, state and local government web resources and services.